2016-02-07 00:01:45 r, 18.86m,0000000002Hz,0000191089c,0000000.415s, 012.5C,00002191
2016-02-07 00:11:45 r, 18.91m,0000000002Hz,0000199007c,0000000.432s, 012.2C,00002191
2016-02-07 00:21:47 r, 19.03m,0000000002Hz,0000223674c,0000000.485s, 012.2C,00002191
2016-02-07 00:31:45 r, 19.23m,0000000002Hz,0000266774c,0000000.579s, 011.9C,00002191
2016-02-07 00:41:45 r, 19.62m,0000000001Hz,0000382100c,0000000.829s, 011.6C,00002191
2016-02-07 00:51:47 r, 19.95m,0000000001Hz,0000517573c,0000001.123s, 011.6C,00002191
2016-02-07 01:01:45 r, 19.74m,0000000001Hz,0000428064c,0000000.929s, 011.9C,00002191
2016-02-07 01:11:45 r, 19.24m,0000000002Hz,0000271699c,0000000.590s, 012.2C,00002191
2016-02-07 01:21:46 r, 18.46m,0000000004Hz,0000132511c,0000000.288s, 012.5C,00002191
2016-02-07 01:31:45 r, 18.16m,0000000005Hz,0000101250c,0000000.220s, 012.5C,00002191
2016-02-07 01:41:45 r, 18.20m,0000000004Hz,0000104850c,0000000.228s, 012.5C,00002191
2016-02-07 01:51:45 r, 18.07m,0000000005Hz,0000092803c,0000000.201s, 012.5C,00002191
2016-02-07 02:01:45 r, 18.38m,0000000004Hz,0000123009c,0000000.267s, 012.2C,00002191
2016-02-07 02:11:45 r, 18.40m,0000000004Hz,0000125812c,0000000.273s, 012.2C,00002191
2016-02-07 02:21:46 r, 18.34m,0000000004Hz,0000118672c,0000000.258s, 011.9C,00002191
2016-02-07 02:31:45 r, 18.48m,0000000003Hz,0000134361c,0000000.292s, 011.9C,00002191
2016-02-07 02:41:45 r, 18.46m,0000000003Hz,0000131258c,0000000.285s, 011.6C,00002191
2016-02-07 02:51:46 r, 18.41m,0000000003Hz,0000126405c,0000000.274s, 011.6C,00002191
2016-02-07 03:01:45 r, 18.32m,0000000004Hz,0000116168c,0000000.252s, 011.6C,00002191
2016-02-07 03:11:45 r, 18.06m,0000000005Hz,0000091442c,0000000.198s, 011.6C,00002191
2016-02-07 03:21:45 r, 18.36m,0000000004Hz,0000120086c,0000000.261s, 011.2C,00002191
2016-02-07 03:31:45 r, 17.98m,0000000006Hz,0000085208c,0000000.185s, 011.2C,00002191
2016-02-07 03:41:45 r, 17.90m,0000000005Hz,0000079669c,0000000.173s, 011.2C,00002191
2016-02-07 03:51:45 r, 18.00m,0000000006Hz,0000086666c,0000000.188s, 011.2C,00002191
2016-02-07 04:01:45 r, 18.14m,0000000004Hz,0000098799c,0000000.214s, 011.2C,00002191
2016-02-07 04:11:45 r, 18.04m,0000000005Hz,0000090232c,0000000.196s, 011.2C,00002191
2016-02-07 04:21:45 r, 17.95m,0000000005Hz,0000083270c,0000000.181s, 011.2C,00002191
2016-02-07 04:31:45 r, 17.91m,0000000006Hz,0000080626c,0000000.175s, 011.2C,00002191
2016-02-07 04:41:45 r, 17.89m,0000000006Hz,0000078386c,0000000.170s, 011.2C,00002191
2016-02-07 04:51:45 r, 17.82m,0000000006Hz,0000073791c,0000000.160s, 010.9C,00002191
2016-02-07 05:01:45 r, 17.63m,0000000007Hz,0000061704c,0000000.134s, 010.9C,00002191
2016-02-07 05:11:45 r, 17.59m,0000000008Hz,0000059269c,0000000.129s, 010.9C,00002191
2016-02-07 05:21:45 r, 17.59m,0000000008Hz,0000059733c,0000000.130s, 010.9C,00002191
2016-02-07 05:31:45 r, 17.59m,0000000008Hz,0000059461c,0000000.129s, 010.6C,00002191
2016-02-07 05:41:45 r, 17.66m,0000000008Hz,0000063295c,0000000.137s, 010.6C,00002191
2016-02-07 05:51:47 r, 17.66m,0000000007Hz,0000063250c,0000000.137s, 010.6C,00002191
2016-02-07 06:01:45 r, 17.76m,0000000006Hz,0000069703c,0000000.151s, 010.6C,00002191
2016-02-07 06:11:45 r, 17.72m,0000000007Hz,0000067388c,0000000.146s, 010.6C,00002191
2016-02-07 06:21:45 r, 17.68m,0000000007Hz,0000064808c,0000000.141s, 010.6C,00002191
2016-02-07 06:31:45 r, 17.61m,0000000007Hz,0000060858c,0000000.132s, 010.3C,00002191
2016-02-07 06:41:45 r, 17.51m,0000000008Hz,0000055748c,0000000.121s, 010.3C,00002191
2016-02-07 06:51:46 r, 17.11m,0000000011Hz,0000038526c,0000000.084s, 010.3C,00002191
2016-02-07 07:01:45 r, 16.02m,0000000033Hz,0000013982c,0000000.030s, 010.3C,00002191
2016-02-07 07:11:45 r, 14.30m,0000000161Hz,0000000000c,0000000.000s, 009.9C,00002191
2016-02-07 07:21:46 r, 12.26m,0000001062Hz,0000000000c,0000000.000s, 009.9C,00002191
2016-02-07 07:31:45 r, 10.16m,0000007265Hz,0000000000c,0000000.000s, 009.6C,00002191
2016-02-07 07:41:45 r, 08.53m,0000032885Hz,0000000000c,0000000.000s, 009.6C,00002191
2016-02-07 07:51:45 r, 07.36m,0000096124Hz,0000000000c,0000000.000s, 009.6C,00002191
2016-02-07 08:01:45 r, 06.54m,0000204076Hz,0000000000c,0000000.000s, 009.3C,00002191
2016-02-07 08:11:45 r, 05.90m,0000368348Hz,0000000000c,0000000.000s, 009.6C,00002191
2016-02-07 08:21:46 r, 00.00m,0000597212Hz,0000000000c,0000000.000s, 009.3C,00002191
2016-02-07 08:31:45 r, 00.00m,0000597197Hz,0000000000c,0000000.000s, 009.3C,00002191
2016-02-07 08:41:45 r, 00.00m,0000597088Hz,0000000000c,0000000.000s, 009.3C,00002191
2016-02-07 08:51:45 r, 00.00m,0000597128Hz,0000000000c,0000000.000s, 009.3C,00002191
2016-02-07 09:01:45 r, 00.00m,0000597111Hz,0000000000c,0000000.000s, 009.3C,00002191
2016-02-07 09:11:45 r, 00.00m,0000597090Hz,0000000000c,0000000.000s, 009.3C,00002191
2016-02-07 09:21:45 r, 00.00m,0000597021Hz,0000000000c,0000000.000s, 009.6C,00002191
2016-02-07 09:31:45 r, 00.00m,0000597089Hz,0000000000c,0000000.000s, 009.3C,00002191
2016-02-07 09:41:45 r, 00.00m,0000597052Hz,0000000000c,0000000.000s, 009.6C,00002191
2016-02-07 09:51:45 r, 00.00m,0000597063Hz,0000000000c,0000000.000s, 009.9C,00002191
2016-02-07 10:01:45 r, 00.00m,0000597113Hz,0000000000c,0000000.000s, 009.9C,00002191
2016-02-07 10:11:45 r, 00.00m,0000597068Hz,0000000000c,0000000.000s, 009.9C,00002191
2016-02-07 10:21:45 r, 00.00m,0000597078Hz,0000000000c,0000000.000s, 009.9C,00002191
2016-02-07 10:31:45 r, 00.00m,0000596965Hz,0000000000c,0000000.000s, 009.9C,00002191
2016-02-07 10:41:45 r, 00.00m,0000596987Hz,0000000000c,0000000.000s, 010.3C,00002191
2016-02-07 10:51:45 r, 00.00m,0000596969Hz,0000000000c,0000000.000s, 010.3C,00002191
2016-02-07 11:01:45 r, 00.00m,0000597020Hz,0000000000c,0000000.000s, 010.3C,00002191
2016-02-07 11:11:45 r, 00.00m,0000596931Hz,0000000000c,0000000.000s, 009.9C,00002191
2016-02-07 11:21:45 r, 00.00m,0000597037Hz,0000000000c,0000000.000s, 009.9C,00002191
2016-02-07 11:31:45 r, 00.00m,0000596950Hz,0000000000c,0000000.000s, 009.6C,00002191
2016-02-07 11:41:45 r, 00.00m,0000597012Hz,0000000000c,0000000.000s, 009.9C,00002191
2016-02-07 11:51:45 r, 00.00m,0000596865Hz,0000000000c,0000000.000s, 009.9C,00002191
2016-02-07 12:01:45 r, 00.00m,0000597011Hz,0000000000c,0000000.000s, 009.6C,00002191
2016-02-07 12:11:45 r, 00.00m,0000597043Hz,0000000000c,0000000.000s, 009.3C,00002191
2016-02-07 12:21:46 r, 00.00m,0000596966Hz,0000000000c,0000000.000s, 009.3C,00002191
2016-02-07 12:31:45 r, 00.00m,0000597081Hz,0000000000c,0000000.000s, 009.3C,00002191
2016-02-07 12:41:45 r, 00.00m,0000597082Hz,0000000000c,0000000.000s, 009.3C,00002191
2016-02-07 12:51:45 r, 00.00m,0000597027Hz,0000000000c,0000000.000s, 008.7C,00002191
2016-02-07 13:01:45 r, 00.00m,0000597166Hz,0000000000c,0000000.000s, 008.3C,00002191
2016-02-07 13:11:45 r, 00.00m,0000597188Hz,0000000000c,0000000.000s, 008.0C,00002191
2016-02-07 13:21:47 r, 00.00m,0000597030Hz,0000000000c,0000000.000s, 008.3C,00002191
2016-02-07 13:31:45 r, 00.00m,0000597206Hz,0000000000c,0000000.000s, 008.3C,00002191
2016-02-07 13:41:45 r, 00.00m,0000597122Hz,0000000000c,0000000.000s, 008.0C,00002191
2016-02-07 13:51:46 r, 00.00m,0000597046Hz,0000000000c,0000000.000s, 008.0C,00002191
2016-02-07 14:01:45 r, 00.00m,0000597096Hz,0000000000c,0000000.000s, 008.0C,00002191
2016-02-07 14:11:45 r, 00.00m,0000597088Hz,0000000000c,0000000.000s, 008.0C,00002191
2016-02-07 14:21:45 r, 00.00m,0000597040Hz,0000000000c,0000000.000s, 008.3C,00002191
2016-02-07 14:31:45 r, 00.00m,0000597208Hz,0000000000c,0000000.000s, 008.0C,00002191
2016-02-07 14:41:45 r, 00.00m,0000597229Hz,0000000000c,0000000.000s, 007.4C,00002191
2016-02-07 14:51:45 r, 00.00m,0000597263Hz,0000000000c,0000000.000s, 006.4C,00002191
2016-02-07 15:01:45 r, 00.00m,0000597271Hz,0000000000c,0000000.000s, 005.8C,00002191
2016-02-07 15:11:45 r, 00.00m,0000597344Hz,0000000000c,0000000.000s, 005.4C,00002191
2016-02-07 15:21:45 r, 00.00m,0000597395Hz,0000000000c,0000000.000s, 005.1C,00002191
2016-02-07 15:31:45 r, 00.00m,0000597413Hz,0000000000c,0000000.000s, 004.8C,00002191
2016-02-07 15:41:45 r, 00.00m,0000597347Hz,0000000000c,0000000.000s, 004.8C,00002191
2016-02-07 15:51:45 r, 00.00m,0000597408Hz,0000000000c,0000000.000s, 004.5C,00002191
2016-02-07 16:01:45 r, 00.00m,0000597451Hz,0000000000c,0000000.000s, 004.1C,00002191
2016-02-07 16:11:45 r, 00.00m,0000597454Hz,0000000000c,0000000.000s, 003.8C,00002191
2016-02-07 16:21:45 r, 00.00m,0000597510Hz,0000000000c,0000000.000s, 003.5C,00002191
2016-02-07 16:31:46 r, 00.00m,0000597579Hz,0000000000c,0000000.000s, 003.5C,00002191
2016-02-07 16:41:45 r, 00.00m,0000555613Hz,0000000000c,0000000.000s, 003.2C,00002191
2016-02-07 16:51:45 r, 00.00m,0000444204Hz,0000000000c,0000000.000s, 002.9C,00002191
2016-02-07 17:01:45 r, 05.92m,0000364494Hz,0000000000c,0000000.000s, 002.5C,00002191
2016-02-07 17:11:45 r, 06.25m,0000268156Hz,0000000000c,0000000.000s, 002.5C,00002191
2016-02-07 17:21:45 r, 06.77m,0000165186Hz,0000000000c,0000000.000s, 002.5C,00002191
2016-02-07 17:31:45 r, 07.58m,0000078401Hz,0000000000c,0000000.000s, 002.2C,00002191
2016-02-07 17:41:45 r, 08.56m,0000031749Hz,0000000000c,0000000.000s, 002.2C,00002191
2016-02-07 17:51:45 r, 10.08m,0000007849Hz,0000000000c,0000000.000s, 002.2C,00002191
2016-02-07 18:01:45 r, 12.05m,0000001283Hz,0000000000c,0000000.000s, 001.9C,00002191
2016-02-07 18:11:45 r, 13.98m,0000000217Hz,0000000000c,0000000.000s, 001.9C,00002191
2016-02-07 18:21:45 r, 15.78m,0000000042Hz,0000011247c,0000000.024s, 002.2C,00002191
2016-02-07 18:31:45 r, 16.98m,0000000013Hz,0000034147c,0000000.074s, 002.2C,00002191
2016-02-07 18:41:45 r, 17.66m,0000000007Hz,0000063437c,0000000.138s, 002.2C,00002191
2016-02-07 18:51:45 r, 18.20m,0000000005Hz,0000104618c,0000000.227s, 002.2C,00002191
2016-02-07 19:01:45 r, 18.63m,0000000003Hz,0000155625c,0000000.338s, 002.2C,00002191
2016-02-07 19:11:45 r, 18.76m,0000000003Hz,0000174844c,0000000.379s, 001.9C,00002191
2016-02-07 19:21:45 r, 19.27m,0000000002Hz,0000281421c,0000000.611s, 001.9C,00002191
2016-02-07 19:31:45 r, 19.12m,0000000002Hz,0000243614c,0000000.529s, 001.6C,00002191
2016-02-07 19:41:45 r, 19.04m,0000000002Hz,0000225553c,0000000.489s, 001.6C,00002191
2016-02-07 19:51:45 r, 18.73m,0000000003Hz,0000170072c,0000000.369s, 001.6C,00002191
2016-02-07 20:01:45 r, 18.30m,0000000004Hz,0000114304c,0000000.248s, 001.6C,00002191
2016-02-07 20:11:45 r, 18.31m,0000000004Hz,0000115202c,0000000.250s, 001.6C,00002191
2016-02-07 20:21:44 r, 17.86m,0000000006Hz,0000076741c,0000000.167s, 001.6C,00002191
2016-02-07 20:31:45 r, 17.92m,0000000005Hz,0000081053c,0000000.176s, 001.6C,00002191
2016-02-07 20:41:44 r, 17.70m,0000000007Hz,0000066352c,0000000.144s, 001.9C,00002191
2016-02-07 20:51:45 r, 17.61m,0000000007Hz,0000060880c,0000000.132s, 001.9C,00002191
2016-02-07 21:01:46 r, 17.64m,0000000008Hz,0000062174c,0000000.135s, 001.9C,00002191
2016-02-07 21:11:44 r, 17.64m,0000000007Hz,0000062272c,0000000.135s, 001.9C,00002191
2016-02-07 21:21:45 r, 17.62m,0000000008Hz,0000061050c,0000000.132s, 001.9C,00002191
2016-02-07 21:31:47 r, 17.56m,0000000008Hz,0000058315c,0000000.127s, 001.9C,00002191
2016-02-07 21:41:45 r, 17.59m,0000000008Hz,0000059619c,0000000.129s, 001.9C,00002191
2016-02-07 21:51:45 r, 17.76m,0000000007Hz,0000070002c,0000000.152s, 001.9C,00002191
2016-02-07 22:01:46 r, 17.82m,0000000006Hz,0000074041c,0000000.161s, 001.9C,00002191
2016-02-07 22:11:44 r, 17.84m,0000000006Hz,0000075709c,0000000.164s, 001.9C,00002191
2016-02-07 22:21:45 r, 17.66m,0000000008Hz,0000063280c,0000000.137s, 001.9C,00002191
2016-02-07 22:31:45 r, 17.60m,0000000008Hz,0000060412c,0000000.131s, 001.9C,00002191
2016-02-07 22:41:45 r, 17.54m,0000000008Hz,0000056715c,0000000.123s, 001.9C,00002191
2016-02-07 22:51:45 r, 17.30m,0000000010Hz,0000045342c,0000000.098s, 001.9C,00002191
2016-02-07 23:01:45 r, 17.32m,0000000010Hz,0000046455c,0000000.101s, 001.9C,00002191
2016-02-07 23:11:45 r, 17.45m,0000000009Hz,0000052619c,0000000.114s, 001.9C,00002191
2016-02-07 23:21:45 r, 17.36m,0000000010Hz,0000048220c,0000000.105s, 001.9C,00002191
2016-02-07 23:31:45 r, 17.29m,0000000010Hz,0000045190c,0000000.098s, 001.9C,00002191
2016-02-07 23:41:45 r, 17.54m,0000000008Hz,0000056586c,0000000.123s, 001.9C,00002191
2016-02-07 23:51:44 r, 17.58m,0000000007Hz,0000058693c,0000000.127s, 001.9C,00002191
